Find Starlink 37073

NORAD ID: 68151 Int'l Des: 2026-049 Owner: SPXS Country: US Constellation: starlink operational
LEOCIRCULARRETROGRADE

Live Position

Loading 3D Globe...

About Starlink 37073

Description loading...

Upcoming Passes

Passes for default location (London). Set your location on the main map for personalized predictions.

Altitude History

Loading altitude history...

Two-Line Element Set

1 68151U 26049K 26105.55222305 .00274836 00000-0 17751-2 0 9993
2 68151 97.2843 126.6557 0001017 88.6360 271.5022 15.75316834 5229
Epoch: Apr 15, 2026 • Age: 23 hours

Current Status

Altitude 370.9 km
Velocity 7.69 km/s
Sub-Earth Point -78.40°S, 144.66°E
Launch Date Mar 13, 2026
Age 33 days
Type internet

Technical Details

Classification Payload
Mass 575.00 kg
Dry Mass 530.00 kg
Total Mass 575.00 kg
Length 0.30 m
Diameter 4.10 m
Span 29.00 m
Shape Box + pan
Manufacturer SPXS
Bus Type Starlink V2MO
Phase Status In Orbit
Owner/State SPXS/US

Most Searched